Regional Weather Roundup
Issued by NWS Charleston, SC

Current Version | Previous Version | Graphics & Text | Print | Product List | Glossary On
Versions: 1 2 3 4 5 6 7 8 9 10 11 12 13 14 15 16 17 18 19 20 21 22 23 24 25 26 27 28 29 30 31 32 33 34 35 36 37 38 39 40 41 42 43 44 45 46 47 48 49 50
000 ASUS42 KCHS 250127 RWRCHS REGIONAL WEATHER ROUNDUP NATIONAL WEATHER SERVICE CHARLESTON SC 900 PM EDT SUN MAY 24 2015 NOTE: "FAIR" INDICATES FEW OR NO CLOUDS BELOW 12,000 FEET WITH NO SIGNIFICANT WEATHER AND/OR OBSTRUCTIONS TO VISIBILITY. NOT ALL STATIONS ARE QUALITY CONTROLLED BY THE NATIONAL WEATHER SERVICE. USE DATA WITH CAUTION...ESPECIALLY DEWPOINT OBSERVATIONS. SCZ027-030-031-034>040-042>050-250200- ...SOUTHEAST SOUTH CAROLINA... CITY SKY/WX TMP DP RH WIND PRES REMARKS N CHARLESTON PTCLDY 73 59 61 SE10 30.31S WATERFRONT PAR N/A 75 63 66 E15 30.28S MOUNT PLEASANT LGT RAIN 72 61 68 E5 30.32R JOHNS ISLAND CLEAR 73 61 64 E10 30.31S PINOPOLIS N/A 75 59 57 VRB3 30.23S MONCKS CORNER FAIR 72 59 64 CALM 30.32R SUMMERVILLE FAIR 72 61 68 E3 30.32S BEAUFORT MCAS MOCLDY 74 63 68 E12 30.29S BEAUFORT ARPT FAIR 73 64 73 E7 30.29S HILTON HEAD IS PTCLDY 75 64 69 NE10G16 30.30S WALTERBORO PTCLDY 70 61 73 E6 30.31S ALLENDALE FAIR 73 63 68 SE5 30.29S ...SOUTHERN MIDLANDS AND PEE DEE... CITY SKY/WX TMP DP RH WIND PRES REMARKS GEORGETOWN NOT AVBL KINGSTREE NOT AVBL ORANGEBURG CLEAR 73 56 54 SE6 30.30S BARNWELL FAIR 75 61 60 E9 30.30R AIKEN FAIR 73 52 46 SE7 30.32S MANNING FAIR 66 55 68 CALM 30.32R COLUMBIA CLEAR 75 56 51 SE10 30.29R SUMTER CLEAR 73 56 55 SE8 30.30R FLORENCE CLEAR 71 56 58 SE8 30.32R MYRTLE BEACH PTCLDY 73 57 56 SE13 30.34S N MYRTLE BEACH PTCLDY 74 58 57 SE8 30.32S $$ GAZ063-065-086>088-099>101-113>116-118-119-134>141-150-250200- ...SOUTHEAST GEORGIA... CITY SKY/WX TMP DP RH WIND PRES REMARKS SAVANNAH ARPT MOCLDY 75 63 66 E10 30.28S HUNTER AAF PTCLDY 75 65 70 E14 30.25S FORT STEWART CLOUDY 75 64 69 E10 30.25S STATESBORO CLEAR 73 66 78 SE6 30.28S SYLVANIA CLEAR 74 65 73 SE6 30.30R CLAXTON FAIR 73 64 73 E8 30.27S ...CSRA...CENTRAL AND FAR SOUTHEAST GEORGIA... CITY SKY/WX TMP DP RH WIND PRES REMARKS THOMSON CLEAR 77 61 57 SE6 30.30S AUGUSTA-BUSH CLEAR 73 57 57 SE7 30.26R AUGUSTA-DANIEL CLEAR 78 56 46 SE7 30.27S SWAINSBORO FAIR 79 64 61 SE10G21 30.27R VIDALIA CLEAR 75 63 64 E8 30.27R EASTMAN FAIR 77 60 55 E8 30.26R HAZLEHURST FAIR 77 62 61 E7 30.24R ALMA CLEAR 75 61 61 E8 30.24R WAYCROSS CLEAR 75 67 74 E12 30.23S JESUP FAIR 75 70 83 E6 30.26R BAXLEY FAIR 75 64 69 E3 30.25R BRUNSWICK N/A 75 70 83 E7 30.25F SAINT SIMONS NOT AVBL $$ SCZ027-028-034-036>038-045-046-048>050-GAZ119-141-250200- ...LAKE AND SUPPLEMENTAL COASTAL OBSERVATIONS... STATION/POSITION TIME TEMP WIND PRES WAVE SWELL AIR SEA DIR/SP/G HT/PER HT/PER/DIR (UTC) (F) (DEG/KT/KT) (MB) (FT/S) (FT/S/D) UPR LAKE MARION NOT AVBL WINYAH BAY 0000 74 110/ 9 1026.0S LAKE MURRAY 0000 79 120/ 6/ 12 1024.4S ACE BASIN NERRS NOT AVBL FORT PULASKI 0100 76 78 80/ 20/ 25 1025.7F SAPELO ISLAND 0100 76 80/ 5 1025.0R $$ ANZ835-935-AMZ111-154-330-350-352-354-370-450-454-472-250200- ...C-MAN AND BUOY OBSERVATIONS... STATION/POSITION TIME TEMP WIND PRES WAVE SWELL AIR SEA DIR/SP/G HT/PER HT/PER/DIR (UTC) (F) (DEG/KT/KT) (MB) (FT/S) (FT/S/D) BUOY 41004 0050 75 75 100/ 17/ 19 1025.5R 6/ 7 2/14 BUOY 41008 0050 76 75 100/ 10/ 14 1024.7R 5/ 7 3/ 90/ 7 FOLLY BEACH CMAN 0100 75 100/ 18/ 19 1026.4S CAPERS NEARSHORE 0008 75 110/ 16/ 21 1026.3 FRIPP NEARSHORE 0000 76 90/ 17/ 19 1024.8R STATION/POSITION TIME TEMP WIND PRES WAVE SWELL AIR SEA DIR/SP/G HT/PER HT/PER/DIR (UTC) (F) (DEG/KT/KT) (MB) (FT/S) (FT/S/D) 5E ST. MARYS GA 0021 78 N/A 4/ 8 FRYING PAN BUOY 0050 75 74 120/ 14/ 17 1027.3F 4/ 6 2/130/ 7 BUOY 41025 0050 74 78 120/ 6/ 10 1027.9S 2/ 7 2/ 50/ 7 CAPE LOOKOUT NC 0100 73 120/ 9/ 10 1027.2R BUOY 41002 0050 72 74 80/ 14/ 17 1026.7F 4/ 6 2/ 90/ 7 BUOY 41010 0020 78 80 80/ 17/ 19 1022.8R ST AUGUSTINE FL 0100 76 78 70/ 17/ 18 1023.9R $$

USA.gov is the U.S. government's official web portal to all federal, state and local government web resources and services.